Location: Staunton
(38.1490°N, 79.0720°W)
Time: 13:51:24
(UTC-05:00)

ISS - Pass Details

Date: 15 December 2017
Orbit: 402 x 407 km, 51.6° (Epoch: 11 December)

Event Time Altitude Azimuth Distance (km) Brightness Sun altitude
Rises 18:06:12 0° 309° (NW) 2,326 0.5 -13.1°
Reaches altitude 10° 18:08:17 10° 310° (NW) 1,463 -0.6 -13.5°
Maximum altitude 18:11:34 87° 37° (NE) 408 -3.9 -14.1°
Enters shadow 18:14:17 14° 129° (SE) 1,233 -1.7 -14.6°
